Terug naar catalogus

ONEWEB-0049

ActiefCommunicatiePO
NORAD 45154·PAYLOAD·🇬🇧 United Kingdom

Gelanceerd Feb 6, 2020 vanaf Baikonur Cosmodrome

Loading…

Volgende Passages (komende 24 uur)

TLE

VersSource: CelesTrak SupGP

Epoch: Sep 14, 2026, 19:32 UTC

1 45154C 20008Z   26257.81442544  .00002661  00000+0  76309-2 0  2571
2 45154  87.8903  18.4283 0001761 115.1647 355.6125 13.10371937    15

Volg ONEWEB-0049 in realtime met AllMySat

Download on the App Store